Regional Weather Roundup
Issued by NWS Charleston, SC

Current Version | Previous Version | Text Only | Print | Product List | Glossary Off
Versions: 1 2 3 4 5 6 7 8 9 10 11 12 13 14 15 16 17 18 19 20 21 22 23 24 25 26 27 28 29 30 31 32 33 34 35 36 37 38 39 40 41 42 43 44 45 46 47 48 49 50

000
ASUS42 KCHS 240142
RWRCHS

REGIONAL WEATHER ROUNDUP
NATIONAL WEATHER SERVICE CHARLESTON SC
900 PM EDT SAT SEP 23 2017

NOTE: "FAIR" INDICATES FEW OR NO CLOUDS BELOW 12,000 FEET WITH NO
SIGNIFICANT WEATHER AND/OR OBSTRUCTIONS TO VISIBILITY.

NOT ALL STATIONS ARE QUALITY CONTROLLED. USE DATA WITH CAUTION...
ESPECIALLY DEWPOINT OBSERVATIONS.

SCZ027-030-031-034>040-042>050-240200-
...SOUTHEAST SOUTH CAROLINA...

CITY           SKY/WX    TMP DP  RH WIND       PRES   REMARKS
N CHARLESTON   CLEAR     77  69  76 E5        30.00S
WATERFRONT PRK   N/A     79  72  79 E7        29.84S
JOHNS ISLAND   FAIR      75  72  88 CALM      30.00S
PINOPOLIS        N/A     79  70  73 CALM      29.94S
MONCKS CORNER  FAIR      70  68  94 CALM      30.01S
SUMMERVILLE    FAIR      72  70  94 CALM      30.02S
BEAUFORT MCAS  CLEAR     79  72  79 E5        30.00S
BEAUFORT ARPT  FAIR      75  70  83 E5        30.00S
HILTON HEAD IS CLEAR     79  73  83 E7        30.00S
WALTERBORO     CLEAR     73  68  83 CALM      30.02R
ALLENDALE      NOT AVBL

...SOUTHERN MIDLANDS AND PEE DEE...

CITY           SKY/WX    TMP DP  RH WIND       PRES   REMARKS
GEORGETOWN     FAIR      70  70 100 NE3       30.02F
KINGSTREE      FAIR      68  68 100 CALM      30.02S
ORANGEBURG     CLEAR     74  68  81 CALM      30.01S
BARNWELL       FAIR      73  70  88 CALM      30.02R
AIKEN          FAIR      72  64  78 CALM      30.06R
MANNING        FAIR      72  37  28 MISG      30.02S
COLUMBIA       CLEAR     78  65  63 CALM      30.01R
SUMTER         CLEAR     72  62  72 NE6       30.00R
FLORENCE       PTCLDY    73  65  75 NE7       30.03R
MYRTLE BEACH   CLOUDY    78  71  79 E7        30.03R
N MYRTLE BEACH CLOUDY    79  69  71 E6        30.02R

$$

GAZ063-065-086>088-099>101-113>116-118-119-134>141-150-240200-
...SOUTHEAST GEORGIA...

CITY           SKY/WX    TMP DP  RH WIND       PRES   REMARKS
SAVANNAH ARPT  CLEAR     78  71  79 E9        30.00R
HUNTER AAF     CLEAR     77  71  84 NE5       29.97S
FORT STEWART   CLEAR     74  68  82 E3        29.97S
STATESBORO     CLEAR     75  67  75 CALM      30.00S
SYLVANIA       CLEAR     73  71  93 CALM      30.02S
CLAXTON        FAIR      74  73  96 CALM      30.00S

...CSRA...CENTRAL AND FAR SOUTHEAST GEORGIA...

CITY           SKY/WX    TMP DP  RH WIND       PRES   REMARKS
THOMSON        PTCLDY    74  68  82 CALM      30.07S
AUGUSTA-BUSH   PTCLDY    74  69  85 CALM      30.00R
AUGUSTA-DANIEL PTCLDY    82  65  56 E3        30.02R
SWAINSBORO     FAIR      73  72  94 CALM      30.02R
VIDALIA        CLEAR     77  70  78 E3        30.00S
EASTMAN        FAIR      78  62  57 CALM      30.02S
HAZLEHURST     FAIR      76  69  79 CALM      29.99R
ALMA           CLEAR     73  70  90 CALM      29.98S
WAYCROSS       CLEAR     76  72  86 E7        29.98S
JESUP          NOT AVBL
BAXLEY         FAIR      72  72 100 E3        29.99S
BRUNSWICK      PTCLDY    75  70  83 NE6       29.98S
SAINT SIMONS   CLEAR     80  70  71 NE13      29.97S

$$

SCZ027-028-034-036>038-045-046-048>050-GAZ119-141-240200-
...LAKE AND SUPPLEMENTAL COASTAL OBSERVATIONS...

STATION/POSITION TIME  TEMP    WIND        PRES    WAVE   SWELL
                       AIR SEA DIR/SP/G            HT/PER HT/PER/DIR
                 (UTC) (F)     (DEG/KT/KT) (MB)    (FT/S) (FT/S/D)
WINYAH BAY       0030   79      90/  4     1016.0S
LAKE MURRAY      0020   80      CALM  /  1 1015.6
ACE BASIN NERRS  0045   76        CALM     1016.0S
FORT PULASKI     0100   79 81   80/ 15/ 17 1016.1
SAPELO ISLAND    0100   78        CALM     1015.0

$$

ANZ835-935-AMZ111-154-330-350-352-354-370-450-454-472-240200-
...C-MAN AND BUOY OBSERVATIONS...

STATION/POSITION TIME  TEMP    WIND        PRES    WAVE   SWELL
                       AIR SEA DIR/SP/G            HT/PER HT/PER/DIR
                 (UTC) (F)     (DEG/KT/KT) (MB)    (FT/S) (FT/S/D)
BUOY 41004       0110   80      60/ 14/ 17 1014.9
BUOY 41008       0050   81 81   70/ 16/ 19 1014.5R   6/15   3/ 90/15
FOLLY BEACH CMAN 0100   79      80/ 10/ 11 1016.5S
CAPERS NEARSHORE 0008   77 81   80/ 10/ 16 1015.5R
FRIPP NEARSHORE  0108   79      70/ 14/ 17 1021.2R


STATION/POSITION TIME  TEMP    WIND        PRES    WAVE   SWELL
                       AIR SEA DIR/SP/G            HT/PER HT/PER/DIR
                 (UTC) (F)     (DEG/KT/KT) (MB)    (FT/S) (FT/S/D)
5E ST. MARYS GA  0100      82                N/A     6/12   3/110/12
FRYING PAN BUOY  0110   80      50/ 12/ 16 1015.7
BUOY 41025       0050   73 75   30/ 14/ 16 1016.9R   8/13   8/150/13
CAPE LOOKOUT NC  0100   77      50/ 14/ 15 1016.8R
BUOY 41002       0050   79 79   60/ 21/ 25 1013.3R  13/14  11/140/14
BUOY 41010       0110           50/ 19/ 23 1012.6
ST AUGUSTINE FL  0100   82 83   50/ 19/ 21 1013.1F


$$




USA.gov is the U.S. government's official web portal to all federal, state and local government web resources and services.